Regional Weather Roundup
Issued by NWS Charleston, SC

Current Version | Previous Version | Graphics & Text | Print | Product List | Glossary On
Versions: 1 2 3 4 5 6 7 8 9 10 11 12 13 14 15 16 17 18 19 20 21 22 23 24 25 26 27 28 29 30 31 32 33 34 35 36 37 38 39 40 41 42 43 44 45 46 47 48 49 50
668 ASUS42 KCHS 261527 RWRCHS REGIONAL WEATHER ROUNDUP NATIONAL WEATHER SERVICE CHARLESTON SC 1100 AM EDT FRI MAY 26 2017 NOTE: "FAIR" INDICATES FEW OR NO CLOUDS BELOW 12,000 FEET WITH NO SIGNIFICANT WEATHER AND/OR OBSTRUCTIONS TO VISIBILITY. NOT ALL STATIONS ARE QUALITY CONTROLLED. USE DATA WITH CAUTION... ESPECIALLY DEWPOINT OBSERVATIONS. SCZ027-030-031-034>040-042>050-261600- ...SOUTHEAST SOUTH CAROLINA... CITY SKY/WX TMP DP RH WIND PRES REMARKS N CHARLESTON MOSUNNY 77 53 43 W10 30.00F WATERFRONT PRK N/A 74 56 53 W7 29.99F JOHNS ISLAND FAIR 77 55 47 W12 30.01S PINOPOLIS N/A 72 57 60 NW7 29.94R MONCKS CORNER FAIR 75 50 41 W6 30.01S SUMMERVILLE FAIR 75 54 46 W6 30.02F BEAUFORT MCAS SUNNY 77 55 46 W9 30.03F BEAUFORT ARPT FAIR 77 54 44 W10 30.03S HILTON HEAD IS SUNNY 75 54 46 W5 30.04F WALTERBORO SUNNY 75 52 43 W10 30.03S ALLENDALE FAIR 75 52 43 VRB6 30.02S ...SOUTHERN MIDLANDS AND PEE DEE... CITY SKY/WX TMP DP RH WIND PRES REMARKS GEORGETOWN FAIR 77 55 47 NW9 30.00S KINGSTREE FAIR 75 54 46 W8 29.99F ORANGEBURG SUNNY 75 55 49 VRB6 30.01F BARNWELL FAIR 77 55 47 W9 30.02F AIKEN FAIR 73 52 46 W12G17 30.05S MANNING FAIR 73 57 56 CALM 30.00F COLUMBIA MOSUNNY 76 51 41 W7 29.99F SUMTER SUNNY 75 55 49 W7 29.97F FLORENCE SUNNY 75 55 49 W12 29.98F MYRTLE BEACH SUNNY 75 55 50 W12 30.00R N MYRTLE BEACH SUNNY 76 55 48 W9 29.97S $$ GAZ063-065-086>088-099>101-113>116-118-119-134>141-150-261600- ...SOUTHEAST GEORGIA... CITY SKY/WX TMP DP RH WIND PRES REMARKS SAVANNAH ARPT MOSUNNY 79 50 36 NW12 30.04F HUNTER AAF SUNNY 77 60 55 CALM 30.02S FORT STEWART SUNNY 76 52 42 W10 30.03S STATESBORO SUNNY 76 53 44 W10 30.05S SYLVANIA SUNNY 76 56 50 NW7 30.05S CLAXTON FAIR 76 57 52 SW5 30.05S ...CSRA...CENTRAL AND FAR SOUTHEAST GEORGIA... CITY SKY/WX TMP DP RH WIND PRES REMARKS THOMSON SUNNY 74 52 46 N8 30.08F AUGUSTA-BUSH SUNNY 78 52 40 NW9G16 30.02S AUGUSTA-DANIEL SUNNY 76 49 38 NW8 30.03S SWAINSBORO FAIR 73 54 49 NW5 30.06S VIDALIA SUNNY 75 54 46 NW9 30.06S EASTMAN FAIR 77 37 23 W5 30.09S HAZLEHURST FAIR 77 55 46 W6 30.06S ALMA SUNNY 77 50 38 NW6 30.06F WAYCROSS SUNNY 80 55 40 CALM 30.07S JESUP FAIR 77 46 33 NW7 30.06S BAXLEY FAIR 77 55 47 NW6 30.06S BRUNSWICK SUNNY 79 57 47 W9 30.07S SAINT SIMONS SUNNY 78 53 41 SW7 30.06S $$ SCZ027-028-034-036>038-045-046-048>050-GAZ119-141-261600- ...LAKE AND SUPPLEMENTAL COASTAL OBSERVATIONS... STATION/POSITION TIME TEMP WIND PRES WAVE SWELL AIR SEA DIR/SP/G HT/PER HT/PER/DIR (UTC) (F) (DEG/KT/KT) (MB) (FT/S) (FT/S/D) WINYAH BAY 1430 72 270/ 8 1015.0F LAKE MURRAY 1450 71 220/ 5/ 9 1014.9F ACE BASIN NERRS 1445 76 310/ 3 1017.0S FORT PULASKI 1500 73 310/ 9/ 12 1017.4 SAPELO ISLAND 1500 77 290/ 5 1018.0 $$ ANZ835-935-AMZ111-154-330-350-352-354-370-450-454-472-261600- ...C-MAN AND BUOY OBSERVATIONS... STATION/POSITION TIME TEMP WIND PRES WAVE SWELL AIR SEA DIR/SP/G HT/PER HT/PER/DIR (UTC) (F) (DEG/KT/KT) (MB) (FT/S) (FT/S/D) BUOY 41004 1510 72 74 270/ 10/ 14 1016.0 BUOY 41008 1450 72 77 290/ 6/ 8 1017.6R 2/ 8 2/120/ 8 FOLLY BEACH CMAN 1500 76 290/ 6/ 9 1016.9F CAPERS NEARSHORE 1508 79 76 290/ 12/ 17 1015.8F FRIPP NEARSHORE 1508 73 76 270/ 10/ 14 1016.8S STATION/POSITION TIME TEMP WIND PRES WAVE SWELL AIR SEA DIR/SP/G HT/PER HT/PER/DIR (UTC) (F) (DEG/KT/KT) (MB) (FT/S) (FT/S/D) 5E ST. MARYS GA 1500 78 N/A 1/ 8 FRYING PAN BUOY 1510 72 75 260/ 14/ 16 1014.6 BUOY 41025 1450 72 79 270/ 19/ 23 1011.5F 7/ 8 3/220/ 8 CAPE LOOKOUT NC 1500 74 260/ 14/ 17 1012.6S BUOY 41002 1450 76 77 290/ 14/ 16 1016.0R 7/ 8 7/280/ 8 BUOY 41010 1510 78 79 290/ 10/ 12 1017.6 ST AUGUSTINE FL 1500 76 75 160/ 2/ 3 1019.1S $$

USA.gov is the U.S. government's official web portal to all federal, state and local government web resources and services.